Back to catalog

THOR ABLESTAR DEB

AliveLEO
NORAD 337·DEBRIS·🇺🇸 United States

Launched Jun 29, 1961 from Cape Canaveral Space Force Station

Loading…

Next Passes (next 24 hours)

TLE

FreshSource: Space-Track

Epoch: Sep 10, 2026, 15:32 UTC

1 00337U 61015DP  26253.64767521  .00000203  00000-0  27051-3 0  9995
2 00337  67.0071  80.2217 0105151 200.5795 159.1029 13.76470018256543

Track THOR ABLESTAR DEB in real time with AllMySat

Download on the App Store